[[{"header":{"parameterUnit":"m.s-1","parameterCategory":1,"la1":30.2991,"la2":30.254,"lo1":-89.0895,"lo2":-89.0444,"dy":0.0017,"dx":0.0017,"nx":28,"ny":28,"refTime":"2023-11-12T03:00:00:Z","depth":0,"parameterNumber":2,"parameterNumberName":"U-component_of_WINDS"},"data":[0,0,0,0,0,0,0,0,0,0,0,0,0,0,0,0,0,0,0,0,0,0,0,0,0,0,0,0,0,0,0,0,0,0,0,0,0,0,0,0,0,0,0,0,0,0,0,0,0,0,0,0,0,0,0,0,0,0,-1.7877,-1.7877,0,-1.7875,-1.7875,-1.7875,-1.7814,-1.7813,-1.7811,-1.781,-1.7809,-1.781,-1.7811,0,0,0,0,0,0,0,0,0,0,0,0,0,-1.7829,-1.783,-1.7877,-1.7877,-1.7877,-1.7875,-1.7875,-1.7875,-1.7814,-1.7813,-1.7811,-1.7809,-1.7808,-1.781,-1.7811,0,0,0,0,0,0,0,0,0,0,0,0,0,-1.7841,-1.7831,-1.7877,-1.7847,-1.7844,-1.7875,-1.7875,-1.7875,-1.7815,-1.7812,-1.781,-1.7808,-1.7807,-1.781,-1.7812,-1.7872,0,0,-1.7818,-1.7819,0,0,0,0,0,0,0,0,-1.784,-1.7843,-1.7851,-1.7849,-1.7846,-1.7842,-1.7858,-1.7874,-1.7815,-1.7826,-1.7809,-1.7807,-1.7822,-1.7823,-1.7827,-1.7872,-1.7872,-1.7819,-1.782,-1.7821,-1.7821,0,0,0,0,0,0,0,-1.784,-1.7842,-1.7876,-1.7851,-1.7848,-1.7833,-1.7832,-1.786,-1.7837,-1.7825,-1.782,-1.7821,-1.782,-1.7826,-1.7827,-1.7872,-1.7818,-1.782,-1.7822,-1.7823,-1.7967,-1.797,0,0,0,0,0,0,-1.7843,-1.7842,-1.7876,-1.7876,-1.7837,-1.7836,-1.7835,-1.7846,-1.7837,-1.7833,-1.7823,-1.7818,-1.7823,-1.7825,-1.7827,-1.7898,-1.7821,-1.7823,-1.7824,-1.7965,-1.7968,-1.797,0,0,0,0,0,0,-1.7842,-1.7846,-1.7876,-1.7858,-1.7861,-1.7839,-1.7852,-1.7847,-1.7853,-1.7835,-1.7831,-1.7833,-1.7821,-1.7824,-1.7861,-1.7897,-1.7824,-1.7826,-1.7962,-1.7966,-1.7969,-1.804,0,0,0,0,0,0,-1.7841,-1.7847,-1.7869,-1.7859,-1.7862,-1.7911,-1.7854,-1.7849,-1.7856,-1.785,-1.7844,-1.784,-1.782,-1.7859,-1.7864,-1.7899,-1.7827,-1.7958,-1.7963,-1.7968,-1.8035,-1.8046,-1.8056,0,0,0,0,0,-1.7839,-1.789,-1.7871,-1.7875,-1.789,-1.7913,-1.7915,-1.789,-1.786,-1.7882,-1.7871,-1.784,-1.7892,-1.7863,-1.7868,-1.7904,-1.7956,-1.7962,-1.7968,-1.803,-1.8044,-1.8056,0,0,0,0,0,0,-1.7905,-1.7888,-1.7867,-1.7915,-1.7916,-1.7903,-1.7931,-1.7905,-1.7916,-1.7909,-1.7878,-1.7877,-1.792,-1.7915,-1.7884,-1.7963,-1.7919,-1.7926,-1.7964,-1.7977,-1.7988,-1.7989,-1.7829,0,0,0,0,0,-1.7925,-1.7946,-1.7929,-1.7973,-1.7975,-1.7953,-1.7962,-1.7943,-1.7943,-1.7943,-1.7935,-1.7937,-1.7953,-1.7965,-1.7979,-1.8033,-1.8031,-1.8061,-1.8071,-1.808,-1.8087,-1.8116,-1.8129,-1.7989,-1.7989,-1.7989,0,0,-1.7967,-1.796,-1.7975,-1.7986,-1.7985,-1.8007,-1.7954,-1.798,-1.7996,-1.7947,-1.7983,-1.7977,-1.7976,-1.8023,-1.8043,-1.8021,-1.8125,-1.8087,-1.8094,-1.8097,-1.8123,-1.8137,-1.8148,-1.7993,-1.7992,-1.7992,0,0,-1.8055,-1.8051,-1.8088,-1.8088,-1.8086,-1.8071,-1.808,-1.8071,-1.8065,-1.8099,-1.8064,-1.8082,-1.8111,-1.8113,-1.8117,-1.8205,-1.8178,-1.821,-1.8266,-1.8295,-1.8306,-1.8316,-1.8348,-1.836,-1.8217,-1.8217,-1.8217,0,-1.8108,-1.8139,-1.811,-1.8139,-1.8145,-1.8101,-1.8138,-1.8139,-1.8143,-1.8148,-1.8123,-1.8158,-1.8155,-1.8201,-1.8223,-1.8228,-1.8237,-1.8212,-1.8307,-1.8316,-1.8325,-1.8356,-1.8368,-1.8221,-1.8221,-1.822,-1.822,0,-1.8205,-1.8227,-1.8257,-1.8261,-1.8271,-1.8303,-1.8279,-1.8292,-1.8272,-1.826,-1.8296,-1.829,-1.8303,-1.8312,-1.8292,-1.8356,-1.8342,-1.8312,-1.8268,-1.8343,-1.8371,-1.8383,-1.8227,-1.8226,-1.8224,-1.8223,0,0,-1.8336,-1.8323,-1.8334,-1.8336,-1.833,-1.8347,-1.8378,-1.839,-1.8402,-1.8405,-1.8431,-1.8456,-1.8428,-1.8433,-1.8413,-1.8438,-1.851,-1.8405,-1.8404,-1.8426,-1.8581,-1.8605,-1.8619,-1.849,-1.8492,-1.8494,-1.8581,0,-1.8422,-1.8474,-1.8448,-1.8503,-1.8524,-1.8482,-1.8508,-1.8508,-1.8497,-1.8514,-1.8501,-1.852,-1.8481,-1.8484,-1.8507,-1.8496,-1.8541,-1.8489,-1.8515,-1.8516,-1.8518,-1.8634,-1.8659,-1.8742,-1.8592,-1.8594,-1.8595,0,-1.853,-1.8538,-1.8595,-1.8586,-1.8593,-1.8618,-1.8627,-1.8642,-1.8641,-1.8632,-1.8637,-1.8611,-1.8641,-1.8595,-1.8636,-1.8602,-1.861,-1.8606,-1.8609,-1.8612,-1.8562,-1.8641,-1.8767,-1.8781,-1.8612,-1.8611,-1.861,0,-1.8622,-1.8646,-1.8684,-1.8686,-1.8676,-1.8694,-1.8691,-1.8687,-1.8696,-1.8703,-1.8709,-1.872,-1.8727,-1.8736,-1.8713,-1.8682,-1.8758,-1.871,-1.8751,-1.8752,-1.8771,-1.877,-1.8902,-1.8774,-1.8774,-1.8773,-1.8773,0,-1.8722,-1.8759,-1.8725,-1.8748,-1.8788,-1.8758,-1.8799,-1.8791,-1.8788,-1.8809,-1.8773,-1.8794,-1.8762,-1.8779,-1.8762,-1.8799,-1.8802,-1.8795,-1.8791,-1.88,-1.8801,-1.8807,-1.8801,-1.8777,-1.8776,-1.8775,-1.8775,0,-1.8832,-1.8811,-1.8849,-1.8836,-1.8833,-1.8864,-1.8853,-1.8874,-1.886,-1.8887,-1.8892,-1.8871,-1.8889,-1.8867,-1.8884,-1.8872,-1.8923,-1.8909,-1.8924,-1.8921,-1.8964,-1.8961,-1.9105,-1.9123,-1.8982,-1.8983,-1.8985,0,-1.8898,-1.8926,-1.8915,-1.8927,-1.8926,-1.8945,-1.8953,-1.8924,-1.8935,-1.8935,-1.8957,-1.8972,-1.8983,-1.9016,-1.9002,-1.9015,-1.9002,-1.9051,-1.9004,-1.9012,-1.9004,-1.9004,-1.9007,-1.9062,-1.9064,-1.9065,-1.9066,0,-1.9019,-1.9007,-1.902,-1.9031,-1.9042,-1.9048,-1.9052,-1.9064,-1.9033,-1.9047,-1.9066,-1.9074,-1.9092,-1.9108,-1.9117,-1.9114,-1.9086,-1.9081,-1.9091,-1.9102,-1.911,-1.9108,-1.8953,-1.9078,-1.9077,-1.9076,-1.9075,-1.9075,-1.911,-1.9133,-1.9129,-1.9146,-1.9145,-1.915,-1.9169,-1.9157,-1.9172,-1.9184,-1.9165,-1.9189,-1.9187,-1.9196,-1.9196,-1.9215,-1.9193,-1.9208,-1.9212,-1.9217,-1.9224,-1.9106,-1.9216,-1.9215,-1.9215,-1.9215,-1.9214,0,-1.923,-1.9225,-1.9241,-1.9247,-1.926,-1.9231,-1.9234,-1.9247,-1.9268,-1.9268,-1.928,-1.9302,-1.9317,-1.9304,-1.9317,-1.9335,-1.9322,-1.9339,-1.9339,-1.9339,-1.9242,-1.9232,-1.9349,-1.9349,-1.9349,-1.9349,-1.9349,-1.9349,-1.9294,-1.9332,-1.9319,-1.9355,-1.935,-1.9373,-1.9377,-1.9381,-1.9381,-1.9407,-1.942,-1.9411,-1.9406,-1.9418,-1.9431,-1.9427,-1.9434,-1.9456,-1.9448,-1.9358,-1.9345,-1.9333,-1.9323,-1.9458,-1.9458,-1.9543,-1.9544,-1.9544]},{"header":{"parameterUnit":"m.s-1","parameterCategory":1,"la1":30.2991,"la2":30.254,"lo1":-89.0895,"lo2":-89.0444,"dy":0.0017,"dx":0.0017,"nx":28,"ny":28,"refTime":"2023-11-12T03:00:00:Z","depth":0,"parameterNumber":3,"parameterNumberName":"V-component_of_WINDS"},"data":[0,0,0,0,0,0,0,0,0,0,0,0,0,0,0,0,0,0,0,0,0,0,0,0,0,0,0,0,0,0,0,0,0,0,0,0,0,0,0,0,0,0,0,0,0,0,0,0,0,0,0,0,0,0,0,0,0,0,-3.413,-3.413,0,-3.4159,-3.4159,-3.416,-3.4131,-3.413,-3.4129,-3.4128,-3.4154,-3.4156,-3.4157,0,0,0,0,0,0,0,0,0,0,0,0,0,-3.4046,-3.4048,-3.413,-3.413,-3.4131,-3.4159,-3.4159,-3.416,-3.4131,-3.413,-3.4128,-3.4127,-3.4153,-3.4155,-3.4157,0,0,0,0,0,0,0,0,0,0,0,0,0,-3.4079,-3.4048,-3.413,-3.412,-3.4119,-3.4159,-3.4159,-3.416,-3.4131,-3.413,-3.4128,-3.4126,-3.4153,-3.4155,-3.4158,-3.4208,0,0,-3.4166,-3.4167,0,0,0,0,0,0,0,0,-3.4078,-3.4083,-3.4121,-3.4121,-3.412,-3.414,-3.4139,-3.4176,-3.4132,-3.4127,-3.4128,-3.4126,-3.415,-3.4153,-3.4162,-3.4209,-3.421,-3.4166,-3.4168,-3.4169,-3.4169,0,0,0,0,0,0,0,-3.4075,-3.4081,-3.4141,-3.4122,-3.4121,-3.4113,-3.4116,-3.4146,-3.4147,-3.4127,-3.4125,-3.4129,-3.415,-3.416,-3.4162,-3.421,-3.4166,-3.4168,-3.417,-3.4171,-3.43,-3.4301,0,0,0,0,0,0,-3.4075,-3.4079,-3.414,-3.4142,-3.4094,-3.4116,-3.4119,-3.4135,-3.4147,-3.4147,-3.413,-3.4128,-3.4156,-3.4159,-3.4163,-3.4223,-3.4169,-3.4171,-3.4173,-3.4298,-3.43,-3.4302,0,0,0,0,0,0,-3.4073,-3.408,-3.4139,-3.411,-3.4117,-3.4119,-3.4137,-3.4137,-3.4146,-3.415,-3.4149,-3.4141,-3.4155,-3.416,-3.4197,-3.4223,-3.4172,-3.4175,-3.4296,-3.4299,-3.4301,-3.4343,0,0,0,0,0,0,-3.4071,-3.408,-3.41,-3.4111,-3.4119,-3.4174,-3.4139,-3.4138,-3.4152,-3.4148,-3.4159,-3.4159,-3.4154,-3.4193,-3.42,-3.4226,-3.4177,-3.4293,-3.4297,-3.43,-3.4339,-3.4346,-3.4353,0,0,0,0,0,-3.4068,-3.4109,-3.4101,-3.4108,-3.4144,-3.4176,-3.418,-3.4174,-3.4154,-3.4173,-3.4175,-3.4159,-3.4219,-3.4198,-3.4204,-3.4232,-3.4292,-3.4296,-3.43,-3.4336,-3.4345,-3.4353,0,0,0,0,0,0,-3.41,-3.4111,-3.4101,-3.4148,-3.4161,-3.4171,-3.4195,-3.4183,-3.4202,-3.4197,-3.4188,-3.419,-3.423,-3.4235,-3.421,-3.4281,-3.4252,-3.4258,-3.4277,-3.4286,-3.4293,-3.4291,-3.4179,0,0,0,0,0,-3.4113,-3.4139,-3.4146,-3.4186,-3.4194,-3.4193,-3.4207,-3.4201,-3.4214,-3.4219,-3.4223,-3.4235,-3.4257,-3.4271,-3.4291,-3.4339,-3.4341,-3.4361,-3.4368,-3.4374,-3.4379,-3.4405,-3.4414,-3.4316,-3.4316,-3.4316,0,0,-3.4139,-3.4148,-3.4165,-3.4193,-3.4203,-3.4229,-3.4198,-3.4227,-3.4246,-3.4222,-3.4259,-3.4263,-3.4275,-3.4318,-3.4338,-3.4323,-3.4407,-3.4379,-3.4384,-3.4386,-3.441,-3.442,-3.4428,-3.4319,-3.4318,-3.4318,0,0,-3.42,-3.421,-3.4245,-3.4255,-3.427,-3.427,-3.4278,-3.429,-3.4292,-3.4328,-3.4311,-3.4333,-3.437,-3.438,-3.439,-3.4456,-3.4441,-3.4462,-3.4499,-3.4524,-3.4532,-3.4539,-3.4563,-3.4571,-3.4467,-3.4467,-3.4467,0,-3.423,-3.4271,-3.4264,-3.4295,-3.4308,-3.4289,-3.4324,-3.4334,-3.4354,-3.4363,-3.4347,-3.4394,-3.4401,-3.4446,-3.4462,-3.447,-3.4479,-3.4461,-3.4532,-3.4538,-3.4545,-3.4567,-3.4576,-3.447,-3.4469,-3.4469,-3.4469,0,-3.4307,-3.4335,-3.4362,-3.4384,-3.4399,-3.4432,-3.4429,-3.4446,-3.4438,-3.4439,-3.4476,-3.4484,-3.4506,-3.4516,-3.4508,-3.456,-3.4551,-3.4533,-3.4504,-3.4557,-3.4578,-3.4586,-3.4473,-3.4472,-3.4472,-3.4471,0,0,-3.439,-3.4409,-3.4418,-3.4428,-3.4444,-3.4465,-3.4496,-3.4518,-3.4533,-3.4547,-3.4573,-3.4605,-3.4589,-3.46,-3.4593,-3.4616,-3.4667,-3.4595,-3.4595,-3.4609,-3.4725,-3.4739,-3.4749,-3.4658,-3.4659,-3.4661,-3.4724,0,-3.4453,-3.4509,-3.4504,-3.4557,-3.4582,-3.4565,-3.4592,-3.4603,-3.4605,-3.4626,-3.4627,-3.465,-3.4627,-3.4634,-3.4655,-3.4657,-3.4691,-3.4652,-3.4681,-3.4682,-3.468,-3.476,-3.4775,-3.4835,-3.4733,-3.4734,-3.4735,0,-3.4533,-3.4553,-3.4608,-3.462,-3.4631,-3.4656,-3.4676,-3.4696,-3.4709,-3.4708,-3.4721,-3.4711,-3.4741,-3.4711,-3.4753,-3.4727,-3.4738,-3.4741,-3.4743,-3.4746,-3.4713,-3.4766,-3.4854,-3.4863,-3.4748,-3.4747,-3.4746,0,-3.4589,-3.4629,-3.4667,-3.4676,-3.4691,-3.4709,-3.4715,-3.4726,-3.474,-3.4757,-3.4766,-3.4786,-3.4797,-3.4812,-3.4807,-3.4785,-3.485,-3.4819,-3.485,-3.485,-3.4865,-3.4864,-3.4956,-3.4871,-3.4871,-3.4871,-3.487,0,-3.466,-3.4695,-3.4693,-3.4717,-3.4755,-3.4748,-3.4786,-3.479,-3.48,-3.4824,-3.4809,-3.4831,-3.4822,-3.4844,-3.4839,-3.4875,-3.4879,-3.4879,-3.4878,-3.4882,-3.4882,-3.4889,-3.4885,-3.4873,-3.4872,-3.4872,-3.4872,0,-3.473,-3.4729,-3.4771,-3.4781,-3.4785,-3.4813,-3.4821,-3.4843,-3.4843,-3.4873,-3.488,-3.488,-3.4904,-3.4901,-3.4927,-3.4924,-3.4969,-3.4962,-3.4965,-3.4964,-3.4995,-3.4993,-3.5096,-3.511,-3.5015,-3.5016,-3.5017,0,-3.4775,-3.4802,-3.4816,-3.4832,-3.484,-3.4865,-3.4879,-3.4873,-3.4888,-3.4905,-3.4925,-3.4948,-3.4967,-3.5006,-3.5008,-3.5028,-3.5022,-3.5057,-3.5025,-3.5027,-3.5023,-3.5022,-3.5025,-3.5063,-3.5064,-3.5065,-3.5066,0,-3.4857,-3.4855,-3.4878,-3.49,-3.4918,-3.4935,-3.495,-3.4963,-3.4958,-3.4976,-3.5001,-3.5016,-3.5044,-3.5067,-3.5086,-3.5091,-3.5078,-3.5076,-3.5084,-3.5088,-3.509,-3.509,-3.4983,-3.5074,-3.5073,-3.5072,-3.5072,-3.5072,-3.4916,-3.4939,-3.4953,-3.4978,-3.4989,-3.5004,-3.5025,-3.5029,-3.505,-3.5074,-3.5068,-3.5097,-3.5108,-3.5133,-3.514,-3.5162,-3.5149,-3.5161,-3.5164,-3.5167,-3.5171,-3.5086,-3.5165,-3.5165,-3.5165,-3.5165,-3.5164,0,-3.4998,-3.5006,-3.5029,-3.5051,-3.5071,-3.5058,-3.5074,-3.5091,-3.5117,-3.5129,-3.5148,-3.5177,-3.52,-3.5203,-3.5224,-3.5241,-3.5235,-3.5247,-3.5246,-3.5247,-3.5181,-3.5173,-3.5251,-3.5251,-3.5251,-3.5251,-3.5251,-3.5251,-3.5042,-3.5081,-3.5082,-3.5125,-3.5132,-3.5162,-3.5172,-3.5185,-3.5195,-3.5229,-3.5248,-3.5251,-3.526,-3.5281,-3.5301,-3.5301,-3.531,-3.5324,-3.5322,-3.5261,-3.5252,-3.5244,-3.5235,-3.5326,-3.5326,-3.5386,-3.5387,-3.5387]}]]